Weather History for Whiting Fld NAS, FL

Change the Weather History Date:

Sunday, October 20, 2013

  Actual Average Record
Temperature  
Mean Temperature 65 °F -  
Max Temperature 75 °F 76 °F 87 °F (2004)
Min Temperature 55 °F 56 °F 39 °F (1996)
Growing Degree Days 15 (Base 50)    
Moisture  
Dew Point 54 °F    
Average Humidity 77    
Maximum Humidity 94    
Minimum Humidity 43    
Precipitation  
Precipitation 0.00 in - - ()
Sea Level Pressure  
Sea Level Pressure 29.99 in    
Wind  
Wind Speed 4 mph (North)    
Max Wind Speed 7 mph    
Max Gust Speed -    
Visibility 8 miles    
Events      
Averages and records for this station are not official NWS values.
T = Trace of Precipitation, MM = Missing Value Source: NWS Daily Summary

Daily Weather History Graph

Daily Weather History Graph

Search for Another Location

Airport:

Trip Planner

Search our weather history database for the weather conditions in past years. The results will help you decide how hot, cold, wet, or windy it might be!

Date:

Astronomy

Oct. 20, 2013 Rise Set
Actual Time 6:54 AM CDT 6:11 PM CDT
Civil Twilight 6:29 AM CDT 6:35 PM CDT
Nautical Twilight 6:01 AM CDT 7:03 PM CDT
Astronomical Twilight 5:33 AM CDT 7:31 PM CDT
Moon 7:27 PM CDT (10/20) 8:24 AM CDT (10/20)
Length of Visible Light 12h 05m
Length of Day
11h 16m
Full, 97% of the Moon is Illuminated
Oct 20
Full
Oct 26
Last Quarter
Nov 3
New
Nov 9
First Quarter
Nov 17
Full

Hourly Weather History & Observations

Time (CDT) Temp. Dew Point Humidity Pressure Visibility Wind Dir Wind Speed Gust Speed Precip Events Conditions
12:56 AM 60.1 °F 55.9 °F 86% 29.95 in 10.0 mi NNW 3.5 mph - N/A   Clear
1:56 AM 59.0 °F 55.9 °F 90% 29.95 in 9.0 mi North 4.6 mph - N/A   Clear
2:56 AM 59.0 °F 55.0 °F 87% 29.94 in 9.0 mi North 4.6 mph - N/A   Clear
3:56 AM 57.9 °F 54.0 °F 87% 29.94 in 9.0 mi North 4.6 mph - N/A   Clear
4:56 AM 57.0 °F 54.0 °F 89% 29.95 in 7.0 mi North 3.5 mph - N/A   Clear
5:56 AM 55.9 °F 53.1 °F 90% 29.97 in 7.0 mi North 5.8 mph - N/A   Clear
6:32 AM 55.4 °F 53.6 °F 94% 30.01 in 6.0 mi Variable 5.8 mph - N/A   Scattered Clouds
6:41 AM 55.4 °F 53.6 °F 94% 30.01 in 6.0 mi North 6.9 mph - N/A   Mostly Cloudy
6:54 AM 55.4 °F 53.6 °F 94% 30.01 in 4.0 mi North 6.9 mph - N/A   Overcast
6:56 AM 55.9 °F 53.1 °F 90% 29.98 in 4.0 mi North 5.8 mph - N/A   Overcast
7:09 AM 55.4 °F 53.6 °F 94% 30.02 in 2.0 mi North 6.9 mph - N/A   Overcast
7:24 AM 55.4 °F 53.6 °F 94% 30.02 in 1.8 mi Variable 3.5 mph - N/A   Overcast
7:32 AM 55.4 °F 53.6 °F 94% 30.03 in 2.0 mi North 3.5 mph - N/A   Overcast
7:56 AM 57.0 °F 54.0 °F 89% 30.01 in 3.0 mi Calm Calm - N/A   Overcast
8:30 AM 57.2 °F 53.6 °F 88% 30.05 in 4.0 mi Variable 5.8 mph - N/A   Overcast
8:56 AM 59.0 °F 54.0 °F 83% 30.02 in 6.0 mi North 4.6 mph - N/A   Haze
9:22 AM 62.6 °F 55.4 °F 77% 30.05 in 8.0 mi North 4.6 mph - N/A   Scattered Clouds
9:56 AM 64.9 °F 55.0 °F 70% 30.01 in 10.0 mi NNE 5.8 mph - N/A   Clear
10:56 AM 68.0 °F 55.0 °F 63% 30.02 in 10.0 mi Variable 4.6 mph - N/A   Clear
11:56 AM 73.0 °F 55.0 °F 53% 30.01 in 10.0 mi Variable 6.9 mph - N/A   Clear
12:56 PM 71.1 °F 54.0 °F 55% 29.99 in 10.0 mi NNE 4.6 mph - N/A   Clear
1:56 PM 75.0 °F 55.9 °F 51% 29.95 in 10.0 mi East 6.9 mph - N/A   Clear
2:56 PM 75.9 °F 54.0 °F 46% 29.94 in 10.0 mi Variable 3.5 mph - N/A   Clear
3:56 PM 75.0 °F 51.1 °F 43% 29.95 in 10.0 mi North 3.5 mph - N/A   Clear
4:56 PM 73.9 °F 52.0 °F 46% 29.95 in 10.0 mi NW 3.5 mph - N/A   Mostly Cloudy
5:56 PM 68.0 °F 55.0 °F 63% 29.95 in 10.0 mi Calm Calm - N/A   Mostly Cloudy
6:56 PM 63.0 °F 55.0 °F 75% 29.96 in 6.0 mi North 3.5 mph - N/A   Haze
7:56 PM 61.0 °F 54.0 °F 78% 29.97 in 10.0 mi North 3.5 mph - N/A   Scattered Clouds
8:56 PM 61.0 °F 54.0 °F 78% 29.98 in 10.0 mi North 5.8 mph - N/A   Mostly Cloudy
9:56 PM 62.1 °F 54.0 °F 75% 29.99 in 9.0 mi NNE 3.5 mph - N/A   Scattered Clouds
10:56 PM 62.1 °F 53.1 °F 72% 29.99 in 10.0 mi Calm Calm - N/A   Clear
11:56 PM 61.0 °F 53.1 °F 75% 29.99 in 10.0 mi North 3.5 mph - N/A   Clear